Change the Weather History Date:

Wednesday, July 3, 2013

  Actual Average (YSSY) Record (YSSY)
Temperature  
Mean Temperature 52 °F -  
Max Temperature 66 °F 63 °F 71 °F (2007)
Min Temperature 37 °F 38 °F 41 °F (2002)
Degree Days  
Heating Degree Days 14    
Growing Degree Days 2 (Base 50)    
Moisture  
Dew Point 43 °F    
Average Humidity 92    
Maximum Humidity 100    
Minimum Humidity 52    
Precipitation  
Precipitation 0.00 in 0.05 in - ()
Sea Level Pressure  
Sea Level Pressure 30.16 in    
Wind  
Wind Speed 0 mph ()    
Max Wind Speed 8 mph    
Max Gust Speed -    
Visibility 2.3 miles    
Events      
Averages and records for this station are not official NWS values.
T = Trace of Precipitation, MM = Missing Value Source: Averaged Metar Reports

Daily Weather History Graph

Daily Weather History Graph

Search for Another Location

Airport or City:

Trip Planner

Search our weather history database for the weather conditions in past years. The results will help you decide how hot, cold, wet, or windy it might be!

Date:

Astronomy

Jul. 03, 2013 Rise Set
Actual Time 7:01 AM AEST 5:00 PM AEST
Civil Twilight 6:34 AM AEST 5:27 PM AEST
Nautical Twilight 6:03 AM AEST 5:58 PM AEST
Astronomical Twilight 5:33 AM AEST 6:29 PM AEST
Moon 2:23 AM AEST (7/3) 1:15 PM AEST (7/3)
Length of Visible Light 10h 53m
Length of Day
9h 58m
Waning Crescent, 23% of the Moon is Illuminated
Jul 3
Waning Crescent
Jul 8
New
Jul 16
First Quarter
Jul 23
Full
Jul 30
Last Quarter

Hourly Weather History & Observations

Time (AEST) Temp. Dew Point Humidity Pressure Visibility Wind Dir Wind Speed Gust Speed Precip Events Conditions
12:00 AM 41.0 °F 41.0 °F 100% 30.21 in 0.9 mi Calm Calm - N/A   Mostly Cloudy
12:30 AM 41.0 °F 41.0 °F 100% 30.21 in 0.2 mi Calm Calm - N/A   Overcast
1:00 AM 39.2 °F 39.2 °F 100% 30.21 in 0.1 mi Calm Calm - N/A   Overcast
1:30 AM 41.0 °F 41.0 °F 100% 30.21 in 0.0 mi Calm Calm - N/A   Overcast
2:00 AM 39.2 °F 39.2 °F 100% 30.21 in 0.1 mi Calm Calm - N/A   Overcast
2:30 AM 39.2 °F 39.2 °F 100% 30.21 in 0.2 mi Calm Calm - N/A   Overcast
3:00 AM 39.2 °F 39.2 °F 100% 30.21 in 0.1 mi Calm Calm - N/A   Overcast
3:30 AM 39.2 °F 37.4 °F 93% 30.21 in 0.1 mi Calm Calm - N/A   Overcast
4:00 AM 39.2 °F 39.2 °F 100% 30.21 in 0.2 mi Calm Calm - N/A   Overcast
4:30 AM 39.2 °F 39.2 °F 100% 30.21 in 0.1 mi Calm Calm - N/A   Overcast
5:00 AM 39.2 °F 39.2 °F 100% 30.21 in 0.0 mi Calm Calm - N/A   Overcast
5:30 AM 37.4 °F 37.4 °F 100% 30.21 in 0.2 mi Calm Calm - N/A   Overcast
6:00 AM 37.4 °F 37.4 °F 100% 30.24 in 0.2 mi Calm Calm - N/A   Overcast
6:30 AM 37.4 °F 37.4 °F 100% 30.24 in 0.1 mi Calm Calm - N/A   Overcast
7:00 AM 37.4 °F 35.6 °F 93% 30.24 in 0.2 mi Calm Calm - N/A   Overcast
7:28 AM 37.4 °F 37.4 °F 100% 30.24 in 0.6 mi Calm Calm - N/A   Mostly Cloudy
7:30 AM 37.4 °F 37.4 °F 100% 30.24 in 0.7 mi Calm Calm - N/A   Mostly Cloudy
7:39 AM 37.4 °F 37.4 °F 100% 30.24 in 0.6 mi Calm Calm - N/A   Mostly Cloudy
8:00 AM 39.2 °F 39.2 °F 100% 30.24 in 0.2 mi Calm Calm - N/A   Overcast
8:30 AM 39.2 °F 39.2 °F 100% 30.24 in 0.2 mi Calm Calm - N/A   Overcast
9:00 AM 42.8 °F 42.8 °F 100% 30.24 in - Calm Calm - N/A   Overcast
9:11 AM 42.8 °F 42.8 °F 100% 30.24 in 1.4 mi Calm Calm - N/A   Overcast
9:30 AM 46.4 °F 46.4 °F 100% 30.24 in 6.2 mi Calm Calm - N/A   Mostly Cloudy
9:49 AM 48.2 °F 48.2 °F 100% 30.24 in 6.2 mi Calm Calm - N/A   Scattered Clouds
10:00 AM 48.2 °F 48.2 °F 100% 30.24 in 6.2 mi Calm Calm - N/A   Unknown
10:30 AM 51.8 °F 48.2 °F 88% 30.24 in 6.2 mi NE 1.2 mph - N/A   Unknown
11:00 AM 53.6 °F 46.4 °F 77% 30.24 in 6.2 mi Calm Calm - N/A   Unknown
11:30 AM 55.4 °F 46.4 °F 72% 30.21 in 6.2 mi Calm Calm - N/A   Unknown
12:00 PM 57.2 °F 48.2 °F 72% 30.21 in 6.2 mi Calm Calm - N/A   Unknown
12:30 PM 59.0 °F 48.2 °F 67% 30.18 in 6.2 mi South 1.2 mph - N/A   Unknown
1:00 PM 60.8 °F 48.2 °F 63% 30.18 in 6.2 mi SSE 1.2 mph - N/A   Unknown
1:30 PM 62.6 °F 51.8 °F 68% 30.15 in 6.2 mi ESE 2.3 mph - N/A   Unknown
2:00 PM 64.4 °F 50.0 °F 59% 30.12 in 6.2 mi East 6.9 mph - N/A   Unknown
2:30 PM 66.2 °F 50.0 °F 56% 30.12 in 6.2 mi NE 4.6 mph - N/A   Unknown
3:00 PM 66.2 °F 50.0 °F 56% 30.12 in 6.2 mi ENE 8.1 mph - N/A   Unknown
3:30 PM 64.4 °F 48.2 °F 56% 30.12 in 6.2 mi ENE 6.9 mph - N/A   Unknown
4:00 PM 64.4 °F 46.4 °F 52% 30.12 in 6.2 mi ENE 4.6 mph - N/A   Unknown
4:30 PM 62.6 °F 46.4 °F 55% 30.12 in 6.2 mi ENE 5.8 mph - N/A   Unknown
5:00 PM 57.2 °F 46.4 °F 67% 30.12 in 6.2 mi ENE 3.5 mph - N/A   Unknown
5:30 PM 55.4 °F 48.2 °F 77% 30.12 in 6.2 mi Calm Calm - N/A   Unknown
6:00 PM 51.8 °F 48.2 °F 88% 30.12 in 6.2 mi Calm Calm - N/A   Unknown
6:30 PM 50.0 °F 48.2 °F 94% 30.12 in 6.2 mi Calm Calm - N/A   Unknown
7:00 PM 48.2 °F 46.4 °F 93% 30.12 in 6.2 mi Calm Calm - N/A   Unknown
7:30 PM 48.2 °F 48.2 °F 100% 30.12 in 6.2 mi Calm Calm - N/A   Unknown
7:55 PM 46.4 °F 46.4 °F 100% 30.12 in - Calm Calm - N/A   Unknown
7:57 PM 46.4 °F 46.4 °F 100% 30.12 in 0.6 mi Calm Calm - N/A   Scattered Clouds
8:00 PM 48.2 °F 48.2 °F 100% 30.12 in 0.3 mi Calm Calm - N/A   Scattered Clouds
8:12 PM 48.2 °F 46.4 °F 93% 30.12 in 0.2 mi Calm Calm - N/A   Mostly Cloudy
8:30 PM 46.4 °F 44.6 °F 93% 30.12 in 0.1 mi Calm Calm - N/A   Mostly Cloudy
9:00 PM 44.6 °F 44.6 °F 100% 30.12 in 0.2 mi Calm Calm - N/A   Overcast
9:30 PM 42.8 °F 41.0 °F 93% 30.12 in 0.1 mi Calm Calm - N/A   Overcast
9:58 PM 42.8 °F 42.8 °F 100% 30.12 in 0.1 mi NNW 1.2 mph - N/A   Mostly Cloudy
10:00 PM 42.8 °F 42.8 °F 100% 30.12 in - Calm Calm - N/A   Mostly Cloudy
10:05 PM 42.8 °F 42.8 °F 100% 30.12 in - Calm Calm - N/A   Mostly Cloudy
10:12 PM 42.8 °F 42.8 °F 100% 30.12 in - Calm Calm - N/A   Scattered Clouds
10:16 PM 41.0 °F 41.0 °F 100% 30.12 in - Calm Calm - N/A   Scattered Clouds
10:30 PM 41.0 °F 41.0 °F 100% 30.12 in 0.8 mi Calm Calm - N/A   Scattered Clouds
10:31 PM 41.0 °F 41.0 °F 100% 30.12 in 0.5 mi Calm Calm - N/A   Scattered Clouds
10:37 PM 39.2 °F 39.2 °F 100% 30.12 in 0.2 mi Calm Calm - N/A   Mostly Cloudy
11:00 PM 39.2 °F 39.2 °F 100% 30.12 in 0.2 mi Calm Calm - N/A   Mostly Cloudy
11:08 PM 41.0 °F 39.2 °F 93% 30.09 in 0.3 mi Calm Calm - N/A   Mostly Cloudy
11:09 PM 41.0 °F 39.2 °F 93% 30.09 in 0.3 mi Calm Calm - N/A   Mostly Cloudy
11:12 PM 41.0 °F 41.0 °F 100% 30.09 in 0.6 mi Calm Calm - N/A   Mostly Cloudy
11:14 PM 41.0 °F 41.0 °F 100% 30.09 in 0.6 mi Calm Calm - N/A   Mostly Cloudy
11:30 PM 39.2 °F 39.2 °F 100% 30.09 in 0.1 mi Calm Calm - N/A   Overcast
11:34 PM 39.2 °F 39.2 °F 100% 30.09 in 0.1 mi Calm Calm - N/A   Overcast
11:44 PM 37.4 °F 37.4 °F 100% 30.09 in 0.9 mi Calm Calm - N/A   Overcast
11:45 PM 37.4 °F 37.4 °F 100% 30.09 in 0.6 mi Calm Calm - N/A   Overcast
11:46 PM 37.4 °F 37.4 °F 100% 30.09 in 0.4 mi Calm Calm - N/A   Overcast
11:47 PM 39.2 °F 37.4 °F 93% 30.09 in 0.4 mi Calm Calm - N/A   Overcast
11:51 PM 39.2 °F 39.2 °F 100% 30.09 in 0.3 mi Calm Calm - N/A   Overcast